Read MPEC 2000-E40
Read MPEC 2000-E42
M.P.E.C. 2000-E41 Issued 2000 Mar. 10, 17:17 UT
The Minor Planet Electronic Circulars contain information on unusual
minor planets and routine data on comets. They are published
on behalf of Commission 20 of the International Astronomical Union by the
Minor Planet Center, Smithsonian Astrophysical Observatory,
Cambridge, MA 02138, U.S.A.
Prepared using the Tamkin Foundation Computer Network
BMARSDEN@CFA.HARVARD.EDU or GWILLIAMS@CFA.HARVARD.EDU
URL http://cfa-www.harvard.edu/iau/mpc.html ISSN 1523-6714
2000 DQ110
Observations:
K00DB0Q IC2000 02 26.38369 11 57 17.94 +04 34 27.7 703
K00DB0Q IC2000 02 26.39528 11 57 15.45 +04 34 14.6 703
K00DB0Q IC2000 02 26.41853 11 57 10.25 +04 33 39.2 703
K00DB0Q* C2000 02 29.38094 11 46 12.37 +03 27 36.4 18.5 704
K00DB0Q C2000 02 29.39445 11 46 09.34 +03 27 18.6 18.3 704
K00DB0Q C2000 02 29.40786 11 46 06.38 +03 27 01.0 18.7 704
K00DB0Q C2000 02 29.42126 11 46 03.35 +03 26 43.6 18.7 704
K00DB0Q C2000 02 29.43466 11 46 00.44 +03 26 26.0 704
K00DB0Q C2000 02 29.91918 11 44 13.70 +03 15 43.4 046
K00DB0Q C2000 02 29.92185 11 44 13.15 +03 15 41.7 17.3 R 046
K00DB0Q C2000 02 29.92264 11 44 12.90 +03 15 40.8 046
K00DB0Q C2000 02 29.92362 11 44 12.75 +03 15 38.4 046
K00DB0Q C2000 02 29.92495 11 44 12.46 +03 15 36.5 17.1 R 046
K00DB0Q C2000 03 01.58615 11 41 46.79 +03 01 10.0 344
K00DB0Q C2000 03 01.58918 11 41 46.08 +03 01 06.1 344
K00DB0Q C2000 03 01.59275 11 41 45.35 +03 01 01.6 344
K00DB0Q C2000 03 01.66341 11 41 29.39 +02 59 40.2 17.3 R 422
K00DB0Q C2000 03 01.66451 11 41 29.09 +02 59 39.4 17.9 R 422
K00DB0Q C2000 03 01.66524 11 41 28.96 +02 59 38.5 17.4 R 422
K00DB0Q C2000 03 01.70563 11 41 20.08 +02 58 34.9 18.4 V 402
K00DB0Q C2000 03 01.70690 11 41 19.85 +02 58 33.1 402
K00DB0Q C2000 03 01.70815 11 41 19.59 +02 58 31.3 402
K00DB0Q C2000 03 01.70941 11 41 19.28 +02 58 29.2 402
K00DB0Q C2000 03 02.30539 11 39 08.72 +02 45 33.8 651
K00DB0Q C2000 03 02.30769 11 39 08.24 +02 45 30.7 18.4 V 651
K00DB0Q C2000 03 02.30910 11 39 07.93 +02 45 29.0 18.4 V 651
K00DB0Q C2000 03 02.39367 11 38 49.12 +02 43 38.4 670
K00DB0Q bC2000 03 02.46091 11 38 34.90 +02 42 22.6 422
K00DB0Q C2000 03 02.46231 11 38 34.73 +02 42 20.3 18.0 R 422
K00DB0Q C2000 03 02.46300 11 38 34.52 +02 42 19.1 18.4 R 422
K00DB0Q C2000 03 02.47744 11 38 30.63 +02 41 49.7 670
K00DB0Q C2000 03 02.49273 11 38 27.80 +02 41 43.3 17.4 R 474
K00DB0Q C2000 03 02.49390 11 38 27.52 +02 41 41.9 17.3 R 474
K00DB0Q C2000 03 02.49506 11 38 27.27 +02 41 39.8 17.5 R 474
K00DB0Q C2000 03 02.49752 11 38 26.74 +02 41 36.8 17.5 R 474
K00DB0Q C2000 03 02.49853 11 38 26.51 +02 41 35.9 17.5 R 474
K00DB0Q C2000 03 02.63020 11 37 57.65 +02 38 32.0 344
K00DB0Q C2000 03 02.63223 11 37 57.20 +02 38 29.4 344
K00DB0Q C2000 03 02.63483 11 37 56.62 +02 38 26.1 344
K00DB0Q C2000 03 02.91112 11 36 56.38 +02 32 29.2 118
K00DB0Q C2000 03 02.91234 11 36 56.09 +02 32 27.9 17.4 R 118
K00DB0Q C2000 03 02.91413 11 36 55.83 +02 32 24.7 104
K00DB0Q C2000 03 02.91431 11 36 55.65 +02 32 25.1 118
K00DB0Q C2000 03 02.91538 11 36 55.51 +02 32 23.3 104
K00DB0Q C2000 03 02.91735 11 36 55.04 +02 32 20.6 104
K00DB0Q C2000 03 02.94145 11 36 49.73 +02 31 49.7 18.1 106
K00DB0Q C2000 03 02.96223 11 36 45.19 +02 31 23.4 17.9 106
K00DB0Q C2000 03 02.97105 11 36 43.19 +02 31 11.7 595
K00DB0Q C2000 03 02.97508 11 36 42.26 +02 31 07.0 18.0 V 595
K00DB0Q C2000 03 02.98075 11 36 41.06 +02 30 59.2 595
K00DB0Q C2000 03 02.98409 11 36 40.30 +02 30 54.8 18.6 106
K00DB0Q C2000 03 03.00256 11 36 36.26 +02 30 30.8 17.4 R 046
K00DB0Q C2000 03 03.00336 11 36 36.09 +02 30 29.9 046
K00DB0Q C2000 03 03.00634 11 36 35.47 +02 30 25.7 046
K00DB0Q C2000 03 03.00859 11 36 34.92 +02 30 23.2 17.6 R 046
K00DB0Q C2000 03 03.02236 11 36 31.88 +02 30 05.7 557
K00DB0Q C2000 03 03.02429 11 36 31.47 +02 30 02.5 557
K00DB0Q C2000 03 03.02618 11 36 31.04 +02 30 00.6 557
K00DB0Q C2000 03 03.34497 11 35 21.71 +02 23 13.7 17.9 704
K00DB0Q C2000 03 03.36322 11 35 17.68 +02 22 50.1 18.3 704
K00DB0Q C2000 03 03.37716 11 35 14.62 +02 22 32.9 17.9 704
K00DB0Q C2000 03 03.39148 11 35 11.50 +02 22 14.6 18.0 704
K00DB0Q C2000 03 03.40567 11 35 08.36 +02 21 56.5 18.1 704
K00DB0Q C2000 03 03.49058 11 34 50.27 +02 20 18.6 18.1 R 474
K00DB0Q C2000 03 03.49149 11 34 50.08 +02 20 17.4 18.0 R 474
K00DB0Q C2000 03 03.49238 11 34 49.87 +02 20 16.2 18.0 R 474
K00DB0Q C2000 03 03.49634 11 34 49.01 +02 20 11.2 18.1 R 474
K00DB0Q C2000 03 03.55525 11 34 36.28 +02 18 54.5 17.8 R 422
K00DB0Q C2000 03 03.55601 11 34 36.07 +02 18 53.5 18.2 R 422
K00DB0Q C2000 03 03.55668 11 34 35.95 +02 18 52.2 18.2 R 422
K00DB0Q C2000 03 04.23806 11 32 08.62 +02 04 15.4 17.7 704
K00DB0Q C2000 03 04.25153 11 32 05.68 +02 03 58.0 18.0 704
K00DB0Q C2000 03 04.26499 11 32 02.77 +02 03 41.1 17.8 704
K00DB0Q C2000 03 04.27844 11 31 59.80 +02 03 23.5 17.8 704
K00DB0Q C2000 03 04.29211 11 31 56.81 +02 03 06.9 17.4 704
K00DB0Q C2000 03 04.57372 11 30 56.06 +01 57 22.7 17.7 R 474
K00DB0Q C2000 03 04.57488 11 30 55.80 +01 57 21.2 18.0 R 474
K00DB0Q C2000 03 04.57678 11 30 55.37 +01 57 18.5 17.5 R 474
K00DB0Q C2000 03 04.57939 11 30 54.87 +01 57 15.5 17.8 R 474
K00DB0Q C2000 03 05.18635 11 28 45.34 +01 44 23.7 20.6 V 649
K00DB0Q C2000 03 05.20417 11 28 41.49 +01 43 59.0 19.1 V 649
K00DB0Q C2000 03 05.23174 11 28 35.44 +01 43 25.3 17.9 704
K00DB0Q C2000 03 05.24502 11 28 32.54 +01 43 07.7 18.6 704
K00DB0Q C2000 03 05.25831 11 28 29.71 +01 42 51.6 18.1 704
K00DB0Q C2000 03 05.27160 11 28 26.81 +01 42 34.9 18.3 704
K00DB0Q C2000 03 05.28488 11 28 23.95 +01 42 18.5 18.0 704
K00DB0Q C2000 03 06.60488 11 23 44.21 +01 15 19.0 16.9 R 474
K00DB0Q C2000 03 06.60773 11 23 43.62 +01 15 15.4 17.3 R 474
K00DB0Q C2000 03 06.61058 11 23 43.00 +01 15 12.2 17.2 R 474
K00DB0Q C2000 03 06.85735 11 22 51.77 +01 09 57.9 16.3 R 046
K00DB0Q C2000 03 06.85837 11 22 51.52 +01 09 56.0 046
K00DB0Q C2000 03 06.85936 11 22 51.31 +01 09 54.6 046
K00DB0Q C2000 03 06.86344 11 22 50.45 +01 09 49.8 046
K00DB0Q C2000 03 06.97956 11 22 25.95 +01 07 28.8 587
K00DB0Q C2000 03 06.98350 11 22 25.08 +01 07 24.2 587
K00DB0Q C2000 03 07.00433 11 22 20.65 +01 06 58.3 17.9 106
K00DB0Q C2000 03 07.01273 11 22 18.91 +01 06 49.0 17.8 106
K00DB0Q C2000 03 07.02275 11 22 16.85 +01 06 35.8 17.9 106
K00DB0Q C2000 03 07.49214 11 20 39.34 +00 57 22.0 17.6 R 474
K00DB0Q C2000 03 07.49331 11 20 39.09 +00 57 20.6 17.6 R 474
K00DB0Q C2000 03 07.49420 11 20 38.90 +00 57 19.5 17.8 R 474
K00DB0Q C2000 03 07.49604 11 20 38.52 +00 57 17.2 17.5 R 474
K00DB0Q C2000 03 07.90590 11 19 13.81 +00 48 52.2 118
K00DB0Q C2000 03 07.90863 11 19 13.18 +00 48 48.9 17.6 R 118
K00DB0Q C2000 03 07.91634 11 19 11.60 +00 48 39.7 118
K00DB0Q bC2000 03 08.26424 11 17 59.85 +00 41 47.0 18.2 R 850
K00DB0Q bC2000 03 08.27951 11 17 56.52 +00 41 27.3 17.9 R 850
K00DB0Q bC2000 03 08.29757 11 17 52.88 +00 41 06.4 18.1 R 850
K00DB0Q bC2000 03 08.31597 11 17 49.08 +00 40 44.3 18.1 R 850
K00DB0Q C2000 03 08.32114 11 17 48.25 +00 40 38.5 18.1 704
K00DB0Q C2000 03 08.34294 11 17 43.74 +00 40 14.3 19.0 704
K00DB0Q C2000 03 08.35657 11 17 40.85 +00 39 56.6 18.3 704
K00DB0Q C2000 03 08.37038 11 17 37.92 +00 39 41.0 18.7 704
K00DB0Q C2000 03 08.38388 11 17 35.19 +00 39 24.6 18.4 704
K00DB0Q C2000 03 09.29931 11 14 29.37 +00 21 29.0 17.7 704
K00DB0Q C2000 03 09.31250 11 14 26.63 +00 21 13.2 18.3 704
K00DB0Q C2000 03 09.32570 11 14 23.95 +00 20 57.9 18.4 704
K00DB0Q C2000 03 09.33892 11 14 21.23 +00 20 42.5 18.4 704
K00DB0Q C2000 03 09.35218 11 14 18.52 +00 20 27.0 18.5 704
Observer details:
046 Klet. Observer M. Tichy. 0.57-m f/5.2 reflector + CCD.
104 San Marcello Pistoiese. Observers L. Tesi, A. Boattini, M. Tombelli.
Measurers G. Forti, L. Tesi, A. Boattini, M. Tombelli. 0.40-m f/5
reflector + CCD.
106 Crni Vrh. Observers H. Mikuz, J. Skvarc. 0.36-m f/6.7 Schmidt-Cassegrain
+ CCD.
118 Modra. Observers A. Galad, J. Toth. 0.6-m f/5.5 reflector + CCD.
344 Bohyunsan Optical Astronomy Observatory. Observers H.-K. Moon, Y.-H. Park.
Measurer M.-Y. Chun. 1.8-m f/8 reflector + CCD.
402 Dynic Astronomical Observatory. Observer A. Sugie. 0.60-m f/3.7 reflector
+ CCD.
422 Loomberah. Observer G. J. Garradd. 0.45-m f/5.4 reflector + CCD.
474 Mount John Observatory, Lake Tekapo. Observers I. P. Griffin, N. Brady.
1.0-m f/7.7 reflector + CCD.
557 Ondrejov. Observers P. Pravec, P. Kusnirak. 0.65-m f/3.6 reflector + CCD.
587 Sormano. Observers F. Manca, A. Testa. 0.5-m reflector + CCD.
595 Farra d'Isonzo. Observers G. Lombardi, E. Pettarin. 0.40-m f/4.5
reflector + CCD.
649 Powell Observatory, Louisburg. Observers G. Pittman, T. Martinez.
Measurers R. Alonzi, R. Fredrick. 0.30-m Schmidt-Cassegrain + CCD.
651 Grasslands Observatory, Tucson. Observer J. E. McGaha. 0.62-m f/5.1
reflector + CCD.
670 Camarillo. Observer J. E. Rogers. 0.30-m f/6.7 Helin Telescope + CCD.
703 Catalina Sky Survey. Observer T. B. Spahr. 0.41-m f/3 Schmidt + CCD.
704 Lincoln Laboratory ETS, New Mexico. Observers M. Blythe, F. Shelly,
M. Bezpalko, M. Elowitz, R. Huber. Measurers J. Stuart, H. Viggh,
R. Sayer, J. B. Evans. 1.0-m f/2.15 reflector + CCD.
850 Cordell-Lorenz Observatory, Sewanee. Observer D. T. Durig. 0.3-m f/5.75
Schmidt-Cassegrain + CCD.
Orbital elements:
2000 DQ110
Epoch 2000 Feb. 26.0 TT = JDT 2451600.5 Williams
M 19.50265 (2000.0) P Q
n 0.16201150 Peri. 95.45846 +0.01641481 -0.98397635
a 3.3325153 Node 347.94649 +0.15180672 +0.17795986
e 0.6304370 Incl. 58.23273 +0.98827389 -0.01099261
P 6.08 H 16.4 G 0.15
From 119 observations 2000 Feb. 26-Mar. 9.
Ephemeris:
2000 DQ110 a,e,i = 3.33, 0.63, 58 q = 1.2316
Date TT R. A. (2000) Decl. Delta r Elong. Phase V
2000 03 07 11 22.36 +01 07.2 0.934 1.925 175.0 2.6 18.0
2000 03 12 11 05.63 -00 29.5 0.973 1.963 172.9 3.6 18.1
2000 03 17 10 50.50 -01 56.2 1.023 2.002 165.3 7.3 18.5
2000 03 22 10 37.23 -03 12.7 1.083 2.040 157.6 10.7 18.8
2000 03 27 10 25.90 -04 19.3 1.151 2.078 150.4 13.7 19.1
2000 04 01 10 16.49 -05 17.2 1.227 2.116 143.6 16.3 19.3
2000 04 06 10 08.88 -06 07.8 1.309 2.154 137.3 18.4 19.6
2000 04 11 10 02.92 -06 52.5 1.397 2.192 131.4 20.1 19.8
2000 04 16 09 58.44 -07 32.6 1.489 2.230 125.9 21.4 20.0
2000 04 26 09 53.23 -08 43.7 1.682 2.305 115.8 23.1 20.4
2000 05 06 09 51.99 -09 48.0 1.884 2.380 106.7 24.0 20.8
2000 05 16 09 53.77 -10 50.3 2.091 2.454 98.5 24.1 21.1
2000 05 26 09 57.81 -11 53.5 2.298 2.526 90.9 23.6 21.3
2000 06 05 10 03.56 -12 59.4 2.504 2.598 83.8 22.8 21.6
2000 06 15 10 10.62 -14 09.2 2.705 2.669 77.1 21.8 21.7
2000 06 25 10 18.68 -15 23.6 2.900 2.739 70.8 20.5 21.9
2000 07 05 10 27.51 -16 42.7 3.087 2.808 64.7 19.1 22.1
Gareth V. Williams (C) Copyright 2000 MPC M.P.E.C. 2000-E41
Read MPEC 2000-E40
Read MPEC 2000-E42
Our Web policy. Index to the CBAT/MPC/ICQ pages.